Location: Binningen
(47.7924°N, 8.7261°E)
Time: 20:25:56
(UTC+00:00)

Cosmos 1733 Rocket - Pass Details

Date: 17 May 2021
Orbit: 603 x 628 km, 82.5° (Epoch: 20 June)

Event Time Altitude Azimuth Distance (km) Brightness Sun altitude
Rises 21:20:33 0° 350° (N) 2,870 7.8 -17.4°
Reaches altitude 10° 21:22:46 10° 350° (N) 1,961 6.7 -17.6°
Maximum altitude 21:27:06 86° 264° (W) 613 3.0 -18.0°
Enters shadow 21:28:48 37° 176° (S) 950 3.5 -18.1°
